Regional Weather Roundup
Issued by NWS

Home | Current Version | Previous Version | Graphics & Text | Print | Product List | Glossary On
Versions: 1 2 3 4 5 6 7 8 9 10 11 12 13 14 15 16 17 18 19 20 21 22 23 24 25 26 27 28 29 30 31 32 33 34 35 36 37 38 39 40 41 42 43 44 45 46 47 48 49 50
000
ASUS43 KMKX 251900
RWRWI

WISCONSIN REGIONAL WEATHER ROUNDUP
NATIONAL WEATHER SERVICE MILWAUKEE/SULLIVAN WI
100 PM CST SUN FEB 25 2018

NOTE: "FAIR" INDICATES FEW OR NO CLOUDS BELOW 12,000 FEET WITH NO
SIGNIFICANT WEATHER AND/OR OBSTRUCTIONS TO VISIBILITY.

WIZ001-002-006>008-014>016-023>028-252000-
NORTHWEST WISCONSIN

CITY           SKY/WX    TMP DP  RH WIND       PRES   REMARKS
SUPERIOR ARPT  CLOUDY    28  18  66 W22G29    29.58R WCI  13
ASHLAND        CLOUDY    26  19  74 SW21G30   29.56R WCI  12
HAYWARD        CLOUDY    24  16  71 SW13G25   29.61R WCI  12
SIREN          CLOUDY    26  17  68 W16G24    29.66R WCI  13
CUMBERLAND     CLOUDY    25  14  63 W15G26    29.66R WCI  12
RICE LAKE      CLOUDY    25  16  70 SW12G18   29.69S WCI  14
CHETEK         CLOUDY    26  15  65 W10G22    29.69R WCI  15
LADYSMITH      CLOUDY    25  18  73 SW15G23   29.66R WCI  13
EAU CLAIRE     NOT AVBL
MENOMONIE      FAIR      27  15  62 SW17      29.73S WCI  14
NEW RICHMOND   FAIR      26  15  62 W17G24    29.72R WCI  13
OSCEOLA        FAIR      26  16  64 SW18G24   29.75S WCI  13
$$

WIZ003>005-009-010-017-018-252000-
NORTH CENTRAL WISCONSIN

CITY           SKY/WX    TMP DP  RH WIND       PRES   REMARKS
MANITOWISH WTR CLOUDY    21  19  93 SW13G26   29.53R WCI   8
ARBOR VITAE    CLOUDY    22  19  86 W16G24    29.54R WCI   8
WOODRUFF       CLOUDY    22  19  86 W16G24    29.54R WCI   8
RHINELANDER    MIX PCPN  23  18  81 W18G28    29.57R WCI   9
EAGLE RIVER    CLOUDY    21  16  81 W23G30    29.53R HAZE    WCI   5
LAND O LAKES   CLOUDY    22  18  83 SW16G24   29.52R FOG     WCI   9
PHILLIPS       FLURRIES  22  18  81 W13G24    29.58S WCI  10
TOMAHAWK       CLOUDY    23  17  77 W14G21    29.60S WCI  11
MEDFORD        PTSUNNY   24  16  71 W13G23    29.64R WCI  12
MERRILL        CLOUDY    27  18  68 W23G29    29.63S WCI  13
$$

WIZ029-030-035-036-043>047-252000-
CENTRAL WISCONSIN

CITY           SKY/WX    TMP DP  RH WIND       PRES   REMARKS
WAUSAU         FAIR      26  18  71 W20G29    29.64S WCI  12
MOSINEE        PTSUNNY   27  21  80 SW17G23   29.68R WCI  14
MARSHFIELD     FAIR      27  18  69 W16       29.67R WCI  15
STEVENS POINT  PTSUNNY   26  20  78 SW15      29.69S WCI  14
WAUPACA        FAIR      33  23  64 SW23G32   29.71S WCI  21
WAUTOMA        FAIR      35  19  52 W21G35    29.74R WCI  24
WISC RAPIDS    FAIR      29  21  72 MISG      29.73R
CAMP DOUGLAS   NOT AVBL
$$

WIZ011>013-019>022-031-037>040-048>050-252000-
NORTHEAST WISCONSIN

CITY           SKY/WX    TMP DP  RH WIND       PRES   REMARKS
ANTIGO         CLOUDY    24  18  80 SW22G32   29.60R HAZE    WCI   8
SHAWANO        CLOUDY    32  23  70 W16G32    29.67R WCI  21
OCONTO         CLOUDY    29  20  69 W21G31    29.66S WCI  16
STURGEON BAY   CLOUDY    30  21  69 SW25G33   29.64R WCI  16
GREEN BAY      FAIR      34  21  59 W21G32    29.68F WCI  22
MANITOWOC      FAIR      34  20  56 W17G33    29.71R WCI  23
APPLETON       MOSUNNY   34  18  51 W21G30    29.69S WCI  22
CLINTONVILLE   FAIR      30  20  66 W16G28    29.69S WCI  19
OSHKOSH        FAIR      34  22  61 SW15G28   29.73R WCI  24
$$

WIZ032>034-041-042-053>061-252000-
SOUTHWEST WISCONSIN

CITY           SKY/WX    TMP DP  RH WIND       PRES   REMARKS
LA CROSSE      FAIR      32  21  64 SW7       29.81S WCI  26
SPARTA         FAIR      31  20  64 W12G20    29.79R WCI  21
VIROQUA        FAIR      31  23  72 W16G22    29.78S WCI  20
BOSCOBEL       FAIR      38  21  50 SW16G25   29.85S WCI  29
PRAIRIE DU CHI FAIR      35  19  52 W13G22    29.86S WCI  26
PLATTEVILLE    FAIR      35  25  68 SW22      29.87S WCI  23
$$

WIZ056-057-062-063-064-067-068-252000-
SOUTH CENTRAL WISCONSIN

CITY           SKY/WX    TMP DP  RH WIND       PRES   REMARKS
REEDSBURG      FAIR      35  19  53 W17G28    29.79R WCI  25
BARABOO/DELLS  FAIR      34  19  53 W22       29.78R WCI  22
LONE ROCK      NOT AVBL
MINERAL POINT  FAIR      36  27  69 SW17G23   29.83R WCI  25
MADISON        FAIR      35  21  56 SW10G26   29.83R WCI  27
MIDDLETON      FAIR      37  22  56 SW17G30   29.81S WCI  27
WATERTOWN      FAIR      35  22  60 SW17G24   29.81R WCI  24
MONROE         FAIR      36  21  55 W25G33    29.84S WCI  23
JANESVILLE     MOSUNNY   39  25  56 W21G26    29.86R WCI  29
$$

WIZ051-052-058>065-066-070>072-252000-
SOUTHEAST WISCONSIN

CITY           SKY/WX    TMP DP  RH WIND       PRES   REMARKS
MILWAUKEE      FAIR      40  21  46 SW23G35   29.82R WCI  30
WAUKESHA       SUNNY     36  19  51 SW22G29   29.83R WCI  24
MILWAUKEE/TIMM SUNNY     37  18  44 SW25G36   29.81R WCI  26
RACINE         FAIR      40  21  46 W13G35    29.86R WCI  32
BURLINGTON     FAIR      37  24  59 SW23G30   29.85R WCI  26
KENOSHA        FAIR      41  23  48 W25G37    29.85R
FOND DU LAC    FAIR      35  20  54 SW20G31   29.75R WCI  24
SHEBOYGAN      FAIR      35  23  61 W29G39    29.74R WCI  22
WEST BEND      FAIR      36  23  60 W24G33    29.74S WCI  24
JUNEAU         FAIR      33  22  63 SW22G31   29.80R WCI  21
$$

LSZ147-162-252000-
LAKE SUPERIOR

STATION/POSITION TIME  TEMP    WIND        PRES    WAVE
                       AIR SEA DIR/SP/G            HT/PER
                 (UTC) (F)     (DEG/KT/KT) (MB)    (FT/S)
DEVILS ISLAND    1800   28     260/ 29/ 35  998.6R
SAXON HARBOR     1830   28     230/ 14/ 21 1000.0S
$$

LMZ867-665-643>646-252000-
LAKE MICHIGAN

STATION/POSITION TIME  TEMP    WIND        PRES    WAVE
                       AIR SEA DIR/SP/G            HT/PER
                 (UTC) (F)     (DEG/KT/KT) (MB)    (FT/S)
NORTHPORT PIER   1840   28                 1002.7R
KEWAUNEE LAKESHO 1830   32     250/ 16/ 27 1004.4R
SHEBOYGAN LAKESH 1800   33     250/ 22/ 27 1007.2R
PORT WASHINGTON  1830   38     260/ 15/ 26 1008.8S
KENOSHA   LAKESH 1800   38     250/ 14/ 28 1010.8
$$

TC  - TEMPERATURE IN CELSIUS
VSB - VISIBILITY IN STATUTE MILES
WCI - WIND CHILL INDEX
HX  - HEAT INDEX




USA.gov is the U.S. government's official web portal to all federal, state and local government web resources and services.